Domain,Timestamp,Username,Page_title,Edit_summary,Revision_id
commons.wikimedia.org,2022-05-10 02:19:57,Jarekt,"File:För tidigt, föreställningsbild - SMV - TV007.tif","/* wbcreateclaim-create:1| */ [[d:Special:EntityPage/P6243]]: [[d:Special:EntityPage/Q77043564]], #quickstatements; #temporary_batch_1652146532203",655032573
commons.wikimedia.org,2022-05-10 02:19:55,Jarekt,"File:En smekmånad i Kina, Operett-teatern 1909. Föreställningsbild - SMV - OpT011.tif","/* wbcreateclaim-create:1| */ [[d:Special:EntityPage/P6243]]: [[d:Special:EntityPage/Q77043581]], #quickstatements; #temporary_batch_1652146532203",655032571
commons.wikimedia.org,2022-05-10 02:19:15,Jarekt,"File:För tidigt, föreställningsbild - SMV - TV008.tif","/* wbcreateclaim-create:1| */ [[d:Special:EntityPage/P6243]]: [[d:Special:EntityPage/Q77044174]], #quickstatements; #temporary_batch_1652146532203",655032531
commons.wikimedia.org,2022-05-10 02:18:43,Jarekt,"File:För tidigt, föreställningsbild - SMV - TV009.tif","/* wbcreateclaim-create:1| */ [[d:Special:EntityPage/P6243]]: [[d:Special:EntityPage/Q77044177]], #quickstatements; #temporary_batch_1652146532203",655032500
commons.wikimedia.org,2022-05-10 02:18:41,Jarekt,"File:För tidigt, föreställningsbild - SMV - TV010.tif","/* wbcreateclaim-create:1| */ [[d:Special:EntityPage/P6243]]: [[d:Special:EntityPage/Q77044178]], #quickstatements; #temporary_batch_1652146532203",655032496
commons.wikimedia.org,2022-05-10 02:18:39,Jarekt,"File:För tidigt, föreställningsbild - SMV - TV011.tif","/* wbcreateclaim-create:1| */ [[d:Special:EntityPage/P6243]]: [[d:Special:EntityPage/Q77044460]], #quickstatements; #temporary_batch_1652146532203",655032495
commons.wikimedia.org,2022-05-10 02:18:38,Jarekt,"File:För tidigt, föreställningsbild - SMV - TV012.tif","/* wbcreateclaim-create:1| */ [[d:Special:EntityPage/P6243]]: [[d:Special:EntityPage/Q77044511]], #quickstatements; #temporary_batch_1652146532203",655032492
commons.wikimedia.org,2022-05-10 02:18:36,Jarekt,"File:För tidigt, föreställningsbild - SMV - TV013.tif","/* wbcreateclaim-create:1| */ [[d:Special:EntityPage/P6243]]: [[d:Special:EntityPage/Q77044586]], #quickstatements; #temporary_batch_1652146532203",655032490
commons.wikimedia.org,2022-05-10 02:18:34,Jarekt,"File:För tidigt, föreställningsbild - SMV - TV014.tif","/* wbcreateclaim-create:1| */ [[d:Special:EntityPage/P6243]]: [[d:Special:EntityPage/Q77044587]], #quickstatements; #temporary_batch_1652146532203",655032488
commons.wikimedia.org,2022-05-10 02:18:33,Jarekt,"File:För tidigt, föreställningsbild - SMV - TV015.tif","/* wbcreateclaim-create:1| */ [[d:Special:EntityPage/P6243]]: [[d:Special:EntityPage/Q77044616]], #quickstatements; #temporary_batch_1652146532203",655032483
commons.wikimedia.org,2022-05-10 02:18:31,Jarekt,"File:För tidigt, föreställningsbild - SMV - TV016.tif","/* wbcreateclaim-create:1| */ [[d:Special:EntityPage/P6243]]: [[d:Special:EntityPage/Q77044618]], #quickstatements; #temporary_batch_1652146532203",655032481
commons.wikimedia.org,2022-05-10 02:17:56,Jarekt,"File:Louis-Auguste Bisson - Ypres, Belgium - 1986.37 - Cleveland Museum of Art.jpg","/* wbcreateclaim-create:1| */ [[d:Special:EntityPage/P6243]]: [[d:Special:EntityPage/Q79939077]], #quickstatements; #temporary_batch_1652146532203",655032447
commons.wikimedia.org,2022-05-10 02:17:54,Jarekt,"File:Ypres, Belgium, c. 1855-1862. Auguste-Rosalie Bisson (1826-1900) and Louis-Auguste Bisson (1814-1876). Albumen print from wet collodion negative, 32.4 x 43 cm. The Cleveland Museum of Art, John L. Severance Fund 1986.37.jpg","/* wbcreateclaim-create:1| */ [[d:Special:EntityPage/P6243]]: [[d:Special:EntityPage/Q79939077]], #quickstatements; #temporary_batch_1652146532203",655032445
commons.wikimedia.org,2022-05-10 02:16:02,Jarekt,"File:Sadness, by Julia Margaret Cameron.jpg","/* wbcreateclaim-create:1| */ [[d:Special:EntityPage/P6243]]: [[d:Special:EntityPage/Q79975701]], #quickstatements; #temporary_batch_1652146532203",655032328
commons.wikimedia.org,2022-05-10 02:16:00,Jarekt,File:Ellen Terry at age 16 by Julia Margaret Cameron.jpg,"/* wbcreateclaim-create:1| */ [[d:Special:EntityPage/P6243]]: [[d:Special:EntityPage/Q79975701]], #quickstatements; #temporary_batch_1652146532203",655032323
commons.wikimedia.org,2022-05-10 02:15:58,Jarekt,"File:Amaliengade, Köpenhamn - TEK - TEKA0115180.tif","/* wbcreateclaim-create:1| */ [[d:Special:EntityPage/P6243]]: [[d:Special:EntityPage/Q82726602]], #quickstatements; #temporary_batch_1652146532203",655032321
commons.wikimedia.org,2022-05-10 02:15:57,Jarekt,File:Gefionfontänen i Köpenhamn - TEK - TEKA0115182.tif,"/* wbcreateclaim-create:1| */ [[d:Special:EntityPage/P6243]]: [[d:Special:EntityPage/Q82726604]], #quickstatements; #temporary_batch_1652146532203",655032316
commons.wikimedia.org,2022-05-10 02:15:55,Jarekt,"File:Sankta Maria kyrka, Helsingborg - TEK - TEKA0115185.tif","/* wbcreateclaim-create:1| */ [[d:Special:EntityPage/P6243]]: [[d:Special:EntityPage/Q82726607]], #quickstatements; #temporary_batch_1652146532203",655032313
commons.wikimedia.org,2022-05-10 02:15:53,Jarekt,"File:Cykelbutiken Adler' Cykler, Esberg, Danmark - TEK - TEKA0115188.tif","/* wbcreateclaim-create:1| */ [[d:Special:EntityPage/P6243]]: [[d:Special:EntityPage/Q82726610]], #quickstatements; #temporary_batch_1652146532203",655032311
commons.wikimedia.org,2022-05-10 02:15:51,Jarekt,"File:Torget i Helsingborg, sett från Rådhuset - TEK - TEKA0115198.tif","/* wbcreateclaim-create:1| */ [[d:Special:EntityPage/P6243]]: [[d:Special:EntityPage/Q82726613]], #quickstatements; #temporary_batch_1652146532203",655032308
commons.wikimedia.org,2022-05-10 02:15:50,Jarekt,File:Rådhuset i Helsingborg - TEK - TEKA0115199.tif,"/* wbcreateclaim-create:1| */ [[d:Special:EntityPage/P6243]]: [[d:Special:EntityPage/Q82726617]], #quickstatements; #temporary_batch_1652146532203",655032302
commons.wikimedia.org,2022-05-10 02:15:48,Jarekt,File:Stenläggare vid rådhuset i Halle. - TEK - TEKA0115200.tif,"/* wbcreateclaim-create:1| */ [[d:Special:EntityPage/P6243]]: [[d:Special:EntityPage/Q82726620]], #quickstatements; #temporary_batch_1652146532203",655032301
commons.wikimedia.org,2022-05-10 02:15:46,Jarekt,File:Marknad på torget framför rådhuset i Halle - TEK - TEKA0115201.tif,"/* wbcreateclaim-create:1| */ [[d:Special:EntityPage/P6243]]: [[d:Special:EntityPage/Q82726623]], #quickstatements; #temporary_batch_1652146532203",655032295
commons.wikimedia.org,2022-05-10 02:15:44,Jarekt,File:Marknad i Halle an der Saale - TEK - TEKA0115202.tif,"/* wbcreateclaim-create:1| */ [[d:Special:EntityPage/P6243]]: [[d:Special:EntityPage/Q82726627]], #quickstatements; #temporary_batch_1652146532203",655032293
commons.wikimedia.org,2022-05-10 02:15:42,Jarekt,"File:Hus invid floden Pegnitz, Nürnberg - TEK - TEKA0115209.tif","/* wbcreateclaim-create:1| */ [[d:Special:EntityPage/P6243]]: [[d:Special:EntityPage/Q82726636]], #quickstatements; #temporary_batch_1652146532203",655032289
commons.wikimedia.org,2022-05-10 02:15:41,Jarekt,File:Café i Nürnberg - TEK - TEKA0115214.tif,"/* wbcreateclaim-create:1| */ [[d:Special:EntityPage/P6243]]: [[d:Special:EntityPage/Q82726638]], #quickstatements; #temporary_batch_1652146532203",655032288
commons.wikimedia.org,2022-05-10 02:15:39,Jarekt,"File:Kvinna med barn, p� gata i Nürnberg - TEK - TEKA0115215.tif","/* wbcreateclaim-create:1| */ [[d:Special:EntityPage/P6243]]: [[d:Special:EntityPage/Q82726642]], #quickstatements; #temporary_batch_1652146532203",655032285
commons.wikimedia.org,2022-05-10 02:15:37,Jarekt,File:Marknad framför Frauenkirche i Nürnberg - TEK - TEKA0115219.tif,"/* wbcreateclaim-create:1| */ [[d:Special:EntityPage/P6243]]: [[d:Special:EntityPage/Q82726646]], #quickstatements; #temporary_batch_1652146532203",655032282
commons.wikimedia.org,2022-05-10 02:15:35,Jarekt,File:Stadsvimmel på torget i Nürnberg - TEK - TEKA0115220.tif,"/* wbcreateclaim-create:1| */ [[d:Special:EntityPage/P6243]]: [[d:Special:EntityPage/Q82726648]], #quickstatements; #temporary_batch_1652146532203",655032279
commons.wikimedia.org,2022-05-10 02:15:34,Jarekt,File:Folksamling på torget i Nürnberg - TEK - TEKA0115221.tif,"/* wbcreateclaim-create:1| */ [[d:Special:EntityPage/P6243]]: [[d:Special:EntityPage/Q82726651]], #quickstatements; #temporary_batch_1652146532203",655032276
commons.wikimedia.org,2022-05-10 02:15:32,Jarekt,"File:Röderbogen i Rothenburg, mot Markusturm - TEK - TEKA0115224.tif","/* wbcreateclaim-create:1| */ [[d:Special:EntityPage/P6243]]: [[d:Special:EntityPage/Q82726653]], #quickstatements; #temporary_batch_1652146532203",655032275
commons.wikimedia.org,2022-05-10 02:15:30,Jarekt,File:Gata i Rothenburg - TEK - TEKA0115226.tif,"/* wbcreateclaim-create:1| */ [[d:Special:EntityPage/P6243]]: [[d:Special:EntityPage/Q82726657]], #quickstatements; #temporary_batch_1652146532203",655032272
commons.wikimedia.org,2022-05-10 02:15:28,Jarekt,File:Man med häst och vagn på gata i Rothenburg - TEK - TEKA0115227.tif,"/* wbcreateclaim-create:1| */ [[d:Special:EntityPage/P6243]]: [[d:Special:EntityPage/Q82726661]], #quickstatements; #temporary_batch_1652146532203",655032271
commons.wikimedia.org,2022-05-10 02:15:25,Jarekt,File:Hus i Rothenburg - TEK - TEKA0115228.tif,"/* wbcreateclaim-create:1| */ [[d:Special:EntityPage/P6243]]: [[d:Special:EntityPage/Q82726669]], #quickstatements; #temporary_batch_1652146532203",655032267
commons.wikimedia.org,2022-05-10 02:15:23,Jarekt,File:Gata med vagnar i Rothenburg - TEK - TEKA0115230.tif,"/* wbcreateclaim-create:1| */ [[d:Special:EntityPage/P6243]]: [[d:Special:EntityPage/Q82726673]], #quickstatements; #temporary_batch_1652146532203",655032265
commons.wikimedia.org,2022-05-10 02:15:21,Jarekt,File:Rådhuset i Rothenburg - TEK - TEKA0115231.tif,"/* wbcreateclaim-create:1| */ [[d:Special:EntityPage/P6243]]: [[d:Special:EntityPage/Q82726677]], #quickstatements; #temporary_batch_1652146532203",655032262
commons.wikimedia.org,2022-05-10 02:15:19,Jarekt,"File:Fontän på torg, bredvid apotek i Rothenburg - TEK - TEKA0115232.tif","/* wbcreateclaim-create:1| */ [[d:Special:EntityPage/P6243]]: [[d:Special:EntityPage/Q82726680]], #quickstatements; #temporary_batch_1652146532203",655032260
commons.wikimedia.org,2022-05-10 02:15:17,Jarekt,"File:Torget i Rothenburg, bredvid rådhuset - TEK - TEKA0115236.tif","/* wbcreateclaim-create:1| */ [[d:Special:EntityPage/P6243]]: [[d:Special:EntityPage/Q82726683]], #quickstatements; #temporary_batch_1652146532203",655032259
commons.wikimedia.org,2022-05-10 02:15:16,Jarekt,File:Fontän på torg i Rothenburg - TEK - TEKA0115237.tif,"/* wbcreateclaim-create:1| */ [[d:Special:EntityPage/P6243]]: [[d:Special:EntityPage/Q82726688]], #quickstatements; #temporary_batch_1652146532203",655032257
commons.wikimedia.org,2022-05-10 02:15:14,Jarekt,File:Restaurang Bratwurst Glöchlein i Bamberg - TEK - TEKA0115241.tif,"/* wbcreateclaim-create:1| */ [[d:Special:EntityPage/P6243]]: [[d:Special:EntityPage/Q82726696]], #quickstatements; #temporary_batch_1652146532203",655032256
commons.wikimedia.org,2022-05-10 02:15:12,Jarekt,File:Gränd i Bamberg - TEK - TEKA0115244.tif,"/* wbcreateclaim-create:1| */ [[d:Special:EntityPage/P6243]]: [[d:Special:EntityPage/Q82726701]], #quickstatements; #temporary_batch_1652146532203",655032251
commons.wikimedia.org,2022-05-10 02:15:10,Jarekt,"File:Gata i Goslar, i bakgrunden Marktkirche - TEK - TEKA0115249.tif","/* wbcreateclaim-create:1| */ [[d:Special:EntityPage/P6243]]: [[d:Special:EntityPage/Q82726707]], #quickstatements; #temporary_batch_1652146532203",655032247
commons.wikimedia.org,2022-05-10 02:15:08,Jarekt,File:Gata i Braunschweig - TEK - TEKA0115251.tif,"/* wbcreateclaim-create:1| */ [[d:Special:EntityPage/P6243]]: [[d:Special:EntityPage/Q82726710]], #quickstatements; #temporary_batch_1652146532203",655032243
commons.wikimedia.org,2022-05-10 02:15:06,Jarekt,File:Motiv från Braunschweig - TEK - TEKA0115252.tif,"/* wbcreateclaim-create:1| */ [[d:Special:EntityPage/P6243]]: [[d:Special:EntityPage/Q82726714]], #quickstatements; #temporary_batch_1652146532203",655032242
commons.wikimedia.org,2022-05-10 02:15:04,Jarekt,"File:Nassauer Haus, Nürnberg - TEK - TEKA0115258.tif","/* wbcreateclaim-create:1| */ [[d:Special:EntityPage/P6243]]: [[d:Special:EntityPage/Q82726717]], #quickstatements; #temporary_batch_1652146532203",655032241
commons.wikimedia.org,2022-05-10 02:15:02,Jarekt,File:Adlerstrasse i Nürnberg - TEK - TEKA0115259.tif,"/* wbcreateclaim-create:1| */ [[d:Special:EntityPage/P6243]]: [[d:Special:EntityPage/Q82726720]], #quickstatements; #temporary_batch_1652146532203",655032239
commons.wikimedia.org,2022-05-10 02:15:00,Jarekt,"File:Mur vid Kaiserburg, Nürnberg - TEK - TEKA0115260.tif","/* wbcreateclaim-create:1| */ [[d:Special:EntityPage/P6243]]: [[d:Special:EntityPage/Q82726723]], #quickstatements; #temporary_batch_1652146532203",655032235
commons.wikimedia.org,2022-05-10 02:14:58,Jarekt,File:Nürnberg med Kaiserburg i bakgrunden - TEK - TEKA0115261.tif,"/* wbcreateclaim-create:1| */ [[d:Special:EntityPage/P6243]]: [[d:Special:EntityPage/Q82726726]], #quickstatements; #temporary_batch_1652146532203",655032231
commons.wikimedia.org,2022-05-10 02:14:56,Jarekt,File:Kaiserburg i Nürnberg - TEK - TEKA0115262.tif,"/* wbcreateclaim-create:1| */ [[d:Special:EntityPage/P6243]]: [[d:Special:EntityPage/Q82726729]], #quickstatements; #temporary_batch_1652146532203",655032227
commons.wikimedia.org,2022-05-10 02:14:54,Jarekt,File:Gata vid Sankt Sebalduskirche i Nürnberg - TEK - TEKA0115265.tif,"/* wbcreateclaim-create:1| */ [[d:Special:EntityPage/P6243]]: [[d:Special:EntityPage/Q82726733]], #quickstatements; #temporary_batch_1652146532203",655032225
commons.wikimedia.org,2022-05-10 02:14:53,Jarekt,File:Transportvagn med tunnor på gata i Nürnberg - TEK - TEKA0115268.tif,"/* wbcreateclaim-create:1| */ [[d:Special:EntityPage/P6243]]: [[d:Special:EntityPage/Q82726741]], #quickstatements; #temporary_batch_1652146532203",655032224
commons.wikimedia.org,2022-05-10 02:14:51,Jarekt,File:Ekipage på gata i Nürnberg - TEK - TEKA0115270.tif,"/* wbcreateclaim-create:1| */ [[d:Special:EntityPage/P6243]]: [[d:Special:EntityPage/Q82726745]], #quickstatements; #temporary_batch_1652146532203",655032220
commons.wikimedia.org,2022-05-10 02:14:49,Jarekt,File:Man på gata i Nürnberg - TEK - TEKA0115273.tif,"/* wbcreateclaim-create:1| */ [[d:Special:EntityPage/P6243]]: [[d:Special:EntityPage/Q82726748]], #quickstatements; #temporary_batch_1652146532203",655032219
commons.wikimedia.org,2022-05-10 02:14:47,Jarekt,File:Fleischerbrügge över floden Pegnitz - TEK - TEKA0115276.tif,"/* wbcreateclaim-create:1| */ [[d:Special:EntityPage/P6243]]: [[d:Special:EntityPage/Q82726750]], #quickstatements; #temporary_batch_1652146532203",655032218
commons.wikimedia.org,2022-05-10 02:14:45,Jarekt,File:Frauenkirche i Nürnberg - TEK - TEKA0115277.tif,"/* wbcreateclaim-create:1| */ [[d:Special:EntityPage/P6243]]: [[d:Special:EntityPage/Q82726753]], #quickstatements; #temporary_batch_1652146532203",655032206
commons.wikimedia.org,2022-05-10 02:14:43,Jarekt,File:Marknadsstånd på torget i Nürnberg - TEK - TEKA0115278.tif,"/* wbcreateclaim-create:1| */ [[d:Special:EntityPage/P6243]]: [[d:Special:EntityPage/Q82726758]], #quickstatements; #temporary_batch_1652146532203",655032204
commons.wikimedia.org,2022-05-10 02:14:41,Jarekt,File:Torghandel i Bamberg - TEK - TEKA0115498.tif,"/* wbcreateclaim-create:1| */ [[d:Special:EntityPage/P6243]]: [[d:Special:EntityPage/Q82726760]], #quickstatements; #temporary_batch_1652146532203",655032201
commons.wikimedia.org,2022-05-10 02:14:40,Jarekt,File:Hotel Kaiserworth vid torget i Goslar - TEK - TEKA0115506.tif,"/* wbcreateclaim-create:1| */ [[d:Special:EntityPage/P6243]]: [[d:Special:EntityPage/Q82726765]], #quickstatements; #temporary_batch_1652146532203",655032198
commons.wikimedia.org,2022-05-10 02:14:38,Jarekt,File:Rådhuset vid torget i Goslar - TEK - TEKA0115509.tif,"/* wbcreateclaim-create:1| */ [[d:Special:EntityPage/P6243]]: [[d:Special:EntityPage/Q82726767]], #quickstatements; #temporary_batch_1652146532203",655032196
commons.wikimedia.org,2022-05-10 02:14:36,Jarekt,File:Rådhuset i Bamberg - TEK - TEKA0115514.tif,"/* wbcreateclaim-create:1| */ [[d:Special:EntityPage/P6243]]: [[d:Special:EntityPage/Q82726775]], #quickstatements; #temporary_batch_1652146532203",655032195
commons.wikimedia.org,2022-05-10 02:14:34,Jarekt,File:Torget i Nürnberg - TEK - TEKA0115521.tif,"/* wbcreateclaim-create:1| */ [[d:Special:EntityPage/P6243]]: [[d:Special:EntityPage/Q82726778]], #quickstatements; #temporary_batch_1652146532203",655032194
commons.wikimedia.org,2022-05-10 02:14:32,Jarekt,File:Albrecht-Dürer-Haus i Nürnberg - TEK - TEKA0115528.tif,"/* wbcreateclaim-create:1| */ [[d:Special:EntityPage/P6243]]: [[d:Special:EntityPage/Q82726781]], #quickstatements; #temporary_batch_1652146532203",655032192
commons.wikimedia.org,2022-05-10 02:14:30,Jarekt,File:Gatumotiv från Stuttgart - TEK - TEKA0116497.tif,"/* wbcreateclaim-create:1| */ [[d:Special:EntityPage/P6243]]: [[d:Special:EntityPage/Q82726784]], #quickstatements; #temporary_batch_1652146532203",655032189
commons.wikimedia.org,2022-05-10 02:14:29,Jarekt,File:Äldre hus i Stuttgart - TEK - TEKA0116499.tif,"/* wbcreateclaim-create:1| */ [[d:Special:EntityPage/P6243]]: [[d:Special:EntityPage/Q82726788]], #quickstatements; #temporary_batch_1652146532203",655032183
commons.wikimedia.org,2022-05-10 02:14:26,Jarekt,File:Motiv från Auray - TEK - TEKA0116510.tif,"/* wbcreateclaim-create:1| */ [[d:Special:EntityPage/P6243]]: [[d:Special:EntityPage/Q82726791]], #quickstatements; #temporary_batch_1652146532203",655032179
commons.wikimedia.org,2022-05-10 02:14:24,Jarekt,"File:Auray, kyrkan Notre Dame de Lourdes - TEK - TEKA0116513.tif","/* wbcreateclaim-create:1| */ [[d:Special:EntityPage/P6243]]: [[d:Special:EntityPage/Q82726794]], #quickstatements; #temporary_batch_1652146532203",655032177
commons.wikimedia.org,2022-05-10 02:14:22,Jarekt,"File:Pont de Saint-Goustan, Auray - TEK - TEKA0116514.tif","/* wbcreateclaim-create:1| */ [[d:Special:EntityPage/P6243]]: [[d:Special:EntityPage/Q82726798]], #quickstatements; #temporary_batch_1652146532203",655032174
commons.wikimedia.org,2022-05-10 02:14:20,Jarekt,"File:Motiv från Dinan, Frankrike - TEK - TEKA0116522.tif","/* wbcreateclaim-create:1| */ [[d:Special:EntityPage/P6243]]: [[d:Special:EntityPage/Q82726801]], #quickstatements; #temporary_batch_1652146532203",655032172
commons.wikimedia.org,2022-05-10 02:14:19,Jarekt,File:Stadsporten till Frankenthal - TEK - TEKA0116526.tif,"/* wbcreateclaim-create:1| */ [[d:Special:EntityPage/P6243]]: [[d:Special:EntityPage/Q82726806]], #quickstatements; #temporary_batch_1652146532203",655032168
commons.wikimedia.org,2022-05-10 02:14:17,Jarekt,File:Marknad framför rådhuset i Heilbronn - TEK - TEKA0116528.tif,"/* wbcreateclaim-create:1| */ [[d:Special:EntityPage/P6243]]: [[d:Special:EntityPage/Q82726810]], #quickstatements; #temporary_batch_1652146532203",655032166
commons.wikimedia.org,2022-05-10 02:14:15,Jarekt,File:Marknadsstånd framför rådhuset i Heilbronn - TEK - TEKA0116530.tif,"/* wbcreateclaim-create:1| */ [[d:Special:EntityPage/P6243]]: [[d:Special:EntityPage/Q82726813]], #quickstatements; #temporary_batch_1652146532203",655032164
commons.wikimedia.org,2022-05-10 02:14:13,Jarekt,File:Motiv vid järnvägen i Alpirsbach - TEK - TEKA0116541.tif,"/* wbcreateclaim-create:1| */ [[d:Special:EntityPage/P6243]]: [[d:Special:EntityPage/Q82726816]], #quickstatements; #temporary_batch_1652146532203",655032161
commons.wikimedia.org,2022-05-10 02:14:11,Jarekt,File:Tübingen vid floden Neckar - TEK - TEKA0116542.tif,"/* wbcreateclaim-create:1| */ [[d:Special:EntityPage/P6243]]: [[d:Special:EntityPage/Q82726819]], #quickstatements; #temporary_batch_1652146532203",655032160
commons.wikimedia.org,2022-05-10 02:14:09,Jarekt,File:Rådhuset i Tübingen - TEK - TEKA0116544.tif,"/* wbcreateclaim-create:1| */ [[d:Special:EntityPage/P6243]]: [[d:Special:EntityPage/Q82726821]], #quickstatements; #temporary_batch_1652146532203",655032157
commons.wikimedia.org,2022-05-10 02:14:07,Jarekt,File:Husbygge vid Horb am Neckar - TEK - TEKA0116545.tif,"/* wbcreateclaim-create:1| */ [[d:Special:EntityPage/P6243]]: [[d:Special:EntityPage/Q82726822]], #quickstatements; #temporary_batch_1652146532203",655032155
commons.wikimedia.org,2022-05-10 02:14:05,Jarekt,File:Neckar flyter genom Horb am Neckar - TEK - TEKA0116548.tif,"/* wbcreateclaim-create:1| */ [[d:Special:EntityPage/P6243]]: [[d:Special:EntityPage/Q82726824]], #quickstatements; #temporary_batch_1652146532203",655032152
commons.wikimedia.org,2022-05-10 02:14:03,Jarekt,File:Katedralen i Saint-Lô - TEK - TEKA0116559.tif,"/* wbcreateclaim-create:1| */ [[d:Special:EntityPage/P6243]]: [[d:Special:EntityPage/Q82726827]], #quickstatements; #temporary_batch_1652146532203",655032149
commons.wikimedia.org,2022-05-10 02:14:01,Jarekt,File:Motiv från Saint-Lô - TEK - TEKA0116561.tif,"/* wbcreateclaim-create:1| */ [[d:Special:EntityPage/P6243]]: [[d:Special:EntityPage/Q82726834]], #quickstatements; #temporary_batch_1652146532203",655032146
commons.wikimedia.org,2022-05-10 02:13:59,Jarekt,File:Katedralen Sanctuaire Sainte Anne d'Auray - TEK - TEKA0116563.tif,"/* wbcreateclaim-create:1| */ [[d:Special:EntityPage/P6243]]: [[d:Special:EntityPage/Q82726838]], #quickstatements; #temporary_batch_1652146532203",655032144
commons.wikimedia.org,2022-05-10 02:13:58,Jarekt,File:Motiv från Caen - TEK - TEKA0116566.tif,"/* wbcreateclaim-create:1| */ [[d:Special:EntityPage/P6243]]: [[d:Special:EntityPage/Q82726841]], #quickstatements; #temporary_batch_1652146532203",655032142
commons.wikimedia.org,2022-05-10 02:13:56,Jarekt,File:Motiv från Caen med katedralen St. Pierre i bakgrunden - TEK - TEKA0116570.tif,"/* wbcreateclaim-create:1| */ [[d:Special:EntityPage/P6243]]: [[d:Special:EntityPage/Q82726846]], #quickstatements; #temporary_batch_1652146532203",655032138
commons.wikimedia.org,2022-05-10 02:13:54,Jarekt,"File:Katedralen St. Sernin, Toulouse - TEK - TEKA0116577.tif","/* wbcreateclaim-create:1| */ [[d:Special:EntityPage/P6243]]: [[d:Special:EntityPage/Q82726849]], #quickstatements; #temporary_batch_1652146532203",655032137
commons.wikimedia.org,2022-05-10 02:13:53,Jarekt,"File:Main i Frankfurt, järnvägsräls längs floden - TEK - TEKA0116582.tif","/* wbcreateclaim-create:1| */ [[d:Special:EntityPage/P6243]]: [[d:Special:EntityPage/Q82726853]], #quickstatements; #temporary_batch_1652146532203",655032135
commons.wikimedia.org,2022-05-10 02:13:51,Jarekt,"File:Anhalter Platz, Berlin - TEK - TEKA0116585.tif","/* wbcreateclaim-create:1| */ [[d:Special:EntityPage/P6243]]: [[d:Special:EntityPage/Q82726856]], #quickstatements; #temporary_batch_1652146532203",655032133
commons.wikimedia.org,2022-05-10 02:13:49,Jarekt,"File:Porte Cailhau, Bordeaux - TEK - TEKA0116588.tif","/* wbcreateclaim-create:1| */ [[d:Special:EntityPage/P6243]]: [[d:Special:EntityPage/Q82726858]], #quickstatements; #temporary_batch_1652146532203",655032129
commons.wikimedia.org,2022-05-10 02:13:47,Jarekt,File:Motiv från Augsburg - TEK - TEKA0116611.tif,"/* wbcreateclaim-create:1| */ [[d:Special:EntityPage/P6243]]: [[d:Special:EntityPage/Q82726861]], #quickstatements; #temporary_batch_1652146532203",655032126
commons.wikimedia.org,2022-05-10 02:13:45,Jarekt,File:Motiv med torn från Augsburg - TEK - TEKA0116612.tif,"/* wbcreateclaim-create:1| */ [[d:Special:EntityPage/P6243]]: [[d:Special:EntityPage/Q82726866]], #quickstatements; #temporary_batch_1652146532203",655032123
commons.wikimedia.org,2022-05-10 02:13:43,Jarekt,"File:Marktsturm, Rothenburg - TEK - TEKA0116624.tif","/* wbcreateclaim-create:1| */ [[d:Special:EntityPage/P6243]]: [[d:Special:EntityPage/Q82726870]], #quickstatements; #temporary_batch_1652146532203",655032122